Charles City, IA

12:39 PM CDT on May 23, 2018 (GMT -0500)
Charles City Municipal

Weather History for KCCY - February, 2012

Change the Weather History Date:

Saturday, February 11, 2012

  Actual Average Record
Temperature  
Mean Temperature 13 °F -  
Max Temperature 23 °F 27 °F 57 °F (1977)
Min Temperature 3 °F 9 °F -20 °F (2014)
Degree Days  
Heating Degree Days 52    
Moisture  
Dew Point -6 °F    
Average Humidity 45    
Maximum Humidity 66    
Minimum Humidity 28    
Precipitation  
Precipitation 0.00 in - - ()
Sea Level Pressure  
Sea Level Pressure 30.50 in    
Wind  
Wind Speed 17 mph (NW)    
Max Wind Speed 25 mph    
Max Gust Speed 32 mph    
Visibility 10 miles    
Events      
Averages and records for this station are not official NWS values.
T = Trace of Precipitation, MM = Missing Value Source: NWS Daily Summary

Daily Weather History Graph

Daily Weather History Graph

Search for Another Location

Airport or City:

Astronomy

Feb. 11, 2012 Rise Set
Actual Time 7:14 AM CST 5:35 PM CST
Civil Twilight 6:44 AM CST 6:05 PM CST
Nautical Twilight 6:11 AM CST 6:38 PM CST
Astronomical Twilight 5:38 AM CST 7:11 PM CST
Moon 10:34 PM CST (2/11) 8:48 AM CST (2/11)
Length of Visible Light 11h 20m
Length of Day
10h 21m
Waning Gibbous, 82% of the Moon is Illuminated
Feb 11
Waning Gibbous
Feb 14
Last Quarter
Feb 21
New
Feb 29
First Quarter
Mar 8
Full

Hourly Weather History & Observations

Time (CST) Temp. Windchill Dew Point Humidity Pressure Visibility Wind Dir Wind Speed Gust Speed Precip Events Conditions
12:15 AM 10.4 °F -7.2 °F -4.0 °F 52% 30.44 in 10.0 mi NNW 17.3 mph - N/A   Clear
12:35 AM 10.4 °F -7.2 °F -5.8 °F 48% 30.44 in 10.0 mi NNW 17.3 mph 25.3 mph N/A   Clear
12:55 AM 8.6 °F -8.9 °F -5.8 °F 52% 30.44 in 10.0 mi NNW 16.1 mph - N/A   Clear
1:15 AM 8.6 °F -7.7 °F -4.0 °F 57% 30.45 in 10.0 mi NW 13.8 mph - N/A   Clear
1:35 AM 8.6 °F -8.3 °F -4.0 °F 57% 30.45 in 10.0 mi NW 15.0 mph 20.7 mph N/A   Clear
2:15 AM 8.6 °F -8.9 °F -5.8 °F 52% 30.46 in 10.0 mi NW 16.1 mph - N/A   Clear
2:35 AM 6.8 °F -12.9 °F -5.8 °F 56% 30.46 in 10.0 mi NW 19.6 mph 24.2 mph N/A   Clear
2:55 AM 6.8 °F -11.3 °F -5.8 °F 56% 30.46 in 10.0 mi NW 16.1 mph - N/A   Clear
3:15 AM 6.8 °F -11.3 °F -5.8 °F 56% 30.46 in 10.0 mi NW 16.1 mph 20.7 mph N/A   Clear
3:35 AM 6.8 °F -11.8 °F -5.8 °F 56% 30.47 in 10.0 mi NW 17.3 mph 20.7 mph N/A   Clear
3:55 AM 6.8 °F -11.8 °F -5.8 °F 56% 30.47 in 10.0 mi NW 17.3 mph 24.2 mph N/A   Clear
4:15 AM 6.8 °F -12.4 °F -5.8 °F 56% 30.47 in 10.0 mi NNW 18.4 mph 23.0 mph N/A   Clear
4:35 AM 6.8 °F -11.3 °F -5.8 °F 56% 30.48 in 10.0 mi NW 16.1 mph 19.6 mph N/A   Clear
4:55 AM 6.8 °F -9.3 °F -5.8 °F 56% 30.49 in 10.0 mi NW 12.7 mph 18.4 mph N/A   Clear
5:15 AM 5.0 °F -10.8 °F -5.8 °F 61% 30.49 in 10.0 mi NW 11.5 mph 19.6 mph N/A   Clear
5:35 AM 5.0 °F -11.6 °F -5.8 °F 61% 30.50 in 10.0 mi NW 12.7 mph 19.6 mph N/A   Clear
5:55 AM 3.2 °F -15.3 °F -5.8 °F 66% 30.50 in 10.0 mi NW 15.0 mph - N/A   Clear
6:15 AM 3.2 °F -13.9 °F -5.8 °F 66% 30.50 in 10.0 mi NW 12.7 mph - N/A   Clear
6:35 AM 3.2 °F -15.3 °F -5.8 °F 66% 30.50 in 10.0 mi NW 15.0 mph - N/A   Clear
6:55 AM 3.2 °F -15.3 °F -5.8 °F 66% 30.50 in 10.0 mi NW 15.0 mph - N/A   Clear
7:15 AM 3.2 °F -14.6 °F -5.8 °F 66% 30.51 in 10.0 mi NW 13.8 mph - N/A   Clear
7:35 AM 3.2 °F -15.3 °F -5.8 °F 66% 30.52 in 10.0 mi NW 15.0 mph - N/A   Clear
7:55 AM 3.2 °F -15.9 °F -5.8 °F 66% 30.53 in 10.0 mi NW 16.1 mph - N/A   Clear
8:15 AM 5.0 °F -13.0 °F -7.6 °F 56% 30.54 in 10.0 mi NW 15.0 mph - N/A   Clear
8:35 AM 6.8 °F -11.8 °F -7.6 °F 52% 30.54 in 10.0 mi NW 17.3 mph 21.9 mph N/A   Clear
8:55 AM 6.8 °F -13.4 °F -7.6 °F 52% 30.55 in 10.0 mi NW 20.7 mph 26.5 mph N/A   Clear
9:15 AM 6.8 °F -12.9 °F -7.6 °F 52% 30.55 in 10.0 mi NNW 19.6 mph 25.3 mph N/A   Clear
9:35 AM 8.6 °F -10.0 °F -7.6 °F 48% 30.55 in 10.0 mi NNW 18.4 mph 23.0 mph N/A   Clear
9:55 AM 10.4 °F -9.9 °F -7.6 °F 44% 30.55 in 10.0 mi NNW 24.2 mph 28.8 mph N/A   Clear
10:15 AM 10.4 °F -9.1 °F -7.6 °F 44% 30.56 in 10.0 mi NW 21.9 mph 26.5 mph N/A   Clear
10:35 AM 12.2 °F -7.9 °F -7.6 °F 41% 30.56 in 10.0 mi NW 25.3 mph 29.9 mph N/A   Clear
10:55 AM 12.2 °F -6.3 °F -9.4 °F 38% 30.56 in 10.0 mi NW 20.7 mph 28.8 mph N/A   Clear
11:15 AM 15.8 °F -2.3 °F -9.4 °F 32% 30.55 in 10.0 mi NW 23.0 mph 29.9 mph N/A   Clear
11:35 AM 15.8 °F -0.2 °F -5.8 °F 38% 30.54 in 10.0 mi NW 17.3 mph 31.1 mph N/A   Clear
11:55 AM 17.6 °F 0.1 °F -7.6 °F 32% 30.53 in 10.0 mi NW 23.0 mph 26.5 mph N/A   Clear
12:15 PM 17.6 °F -0.6 °F -7.6 °F 32% 30.53 in 10.0 mi NW 25.3 mph 31.1 mph N/A   Clear
12:35 PM 19.4 °F 2.5 °F -7.6 °F 30% 30.53 in 10.0 mi WNW 23.0 mph 27.6 mph N/A   Clear
12:55 PM 19.4 °F 2.8 °F -7.6 °F 30% 30.52 in 10.0 mi NW 21.9 mph 29.9 mph N/A   Clear
1:15 PM 19.4 °F 2.5 °F -7.6 °F 30% 30.51 in 10.0 mi WNW 23.0 mph 32.2 mph N/A   Clear
1:35 PM 21.2 °F 4.9 °F -7.6 °F 28% 30.50 in 10.0 mi NW 23.0 mph 32.2 mph N/A   Clear
1:55 PM 21.2 °F 5.2 °F -7.6 °F 28% 30.50 in 10.0 mi NW 21.9 mph 31.1 mph N/A   Clear
2:15 PM 21.2 °F 5.6 °F -7.6 °F 28% 30.50 in 10.0 mi NW 20.7 mph 26.5 mph N/A   Clear
2:35 PM 21.2 °F 5.6 °F -5.8 °F 30% 30.50 in 10.0 mi NW 20.7 mph 26.5 mph N/A   Clear
2:55 PM 21.2 °F 6.4 °F -7.6 °F 28% 30.50 in 10.0 mi NW 18.4 mph 27.6 mph N/A   Clear
3:15 PM 23.0 °F 8.3 °F -5.8 °F 28% 30.50 in 10.0 mi WNW 19.6 mph 23.0 mph N/A   Clear
3:35 PM 21.2 °F 6.8 °F -5.8 °F 30% 30.50 in 10.0 mi WNW 17.3 mph 27.6 mph N/A   Clear
3:55 PM 21.2 °F 4.5 °F -5.8 °F 30% 30.50 in 10.0 mi WNW 24.2 mph 29.9 mph N/A   Clear
4:15 PM 21.2 °F 5.2 °F -7.6 °F 28% 30.49 in 10.0 mi NW 21.9 mph 27.6 mph N/A   Clear
4:35 PM 21.2 °F 6.0 °F -7.6 °F 28% 30.49 in 10.0 mi WNW 19.6 mph 26.5 mph N/A   Clear
4:55 PM 19.4 °F 3.6 °F -7.6 °F 30% 30.49 in 10.0 mi WNW 19.6 mph - N/A   Clear
5:15 PM 19.4 °F 4.5 °F -5.8 °F 33% 30.49 in 10.0 mi WNW 17.3 mph 24.2 mph N/A   Clear
5:35 PM 19.4 °F 5.0 °F -5.8 °F 33% 30.49 in 10.0 mi WNW 16.1 mph 24.2 mph N/A   Clear
5:55 PM 19.4 °F 7.9 °F -4.0 °F 36% 30.49 in 10.0 mi NW 10.4 mph - N/A   Clear
6:15 PM 17.6 °F 3.7 °F -4.0 °F 38% 30.50 in 10.0 mi WNW 13.8 mph - N/A   Clear
6:35 PM 17.6 °F 5.0 °F -2.2 °F 42% 30.49 in 10.0 mi WNW 11.5 mph - N/A   Clear
6:55 PM 17.6 °F 4.3 °F -2.2 °F 42% 30.48 in 10.0 mi WNW 12.7 mph - N/A   Clear
7:15 PM 17.6 °F 4.3 °F -2.2 °F 42% 30.49 in 10.0 mi WNW 12.7 mph - N/A   Clear
7:35 PM 15.8 °F 0.3 °F -2.2 °F 45% 30.48 in 10.0 mi WNW 16.1 mph - N/A   Clear
7:55 PM 17.6 °F 3.7 °F -2.2 °F 42% 30.49 in 10.0 mi WNW 13.8 mph - N/A   Clear
8:15 PM 17.6 °F 2.7 °F -2.2 °F 42% 30.49 in 10.0 mi NW 16.1 mph 21.9 mph N/A   Clear
8:35 PM 15.8 °F 0.3 °F -2.2 °F 45% 30.49 in 10.0 mi NW 16.1 mph 20.7 mph N/A   Clear
8:55 PM 15.8 °F 0.9 °F -2.2 °F 45% 30.48 in 10.0 mi NW 15.0 mph - N/A   Clear
9:15 PM 15.8 °F 1.4 °F -2.2 °F 45% 30.48 in 10.0 mi NW 13.8 mph 20.7 mph N/A   Clear
9:35 PM 15.8 °F 1.4 °F -2.2 °F 45% 30.47 in 10.0 mi NW 13.8 mph - N/A   Clear
9:55 PM 15.8 °F 2.1 °F -2.2 °F 45% 30.48 in 10.0 mi WNW 12.7 mph - N/A   Clear
10:15 PM 15.8 °F 1.4 °F -2.2 °F 45% 30.48 in 10.0 mi WNW 13.8 mph - N/A   Clear
10:35 PM 15.8 °F 2.7 °F -2.2 °F 45% 30.48 in 10.0 mi WNW 11.5 mph - N/A   Clear
10:55 PM 14.0 °F 0.5 °F -0.4 °F 53% 30.48 in 10.0 mi WNW 11.5 mph - N/A   Clear
11:15 PM 14.0 °F -0.2 °F -2.2 °F 49% 30.47 in 10.0 mi WNW 12.7 mph - N/A   Clear
11:35 PM 14.0 °F -0.2 °F -2.2 °F 49% 30.47 in 10.0 mi WNW 12.7 mph - N/A   Clear
11:55 PM 14.0 °F -0.2 °F -2.2 °F 49% 30.46 in 10.0 mi NW 12.7 mph - N/A   Clear